Location: Unspecified
(0.0000°N, 0.0000°E)
Time: 20:25:32
(UTC+00:00)

NOSS 2-2 (E) - Visible Passes

Search period start: 21 January 2022 00:00
Search period end: 31 January 2022 00:00
Orbit: 443 x 1761 km, 63.3° (Epoch: 20 January)

Date Brightness Start Highest point End Pass type
(mag) Time Alt. Az. Time Alt. Az. Time Alt. Az.
21 Jan 4.5 19:48:20 10° S 19:52:18 36° SE 19:52:18 36° SE visible
22 Jan 5.2 19:03:38 10° SSE 19:06:58 17° ESE 19:08:12 16° E visible
22 Jan 6.5 20:54:26 10° WSW 20:55:35 13° W 20:55:35 13° W visible
23 Jan 4.5 20:07:01 10° SW 20:11:30 43° WNW 20:11:30 43° WNW visible
24 Jan 3.5 19:20:48 10° SSW 19:25:53 66° ESE 19:27:29 35° NE visible
25 Jan 4.8 18:35:30 10° S 18:39:47 26° ESE 18:43:11 10° ENE visible
26 Jan 5.4 19:40:09 10° SW 19:44:10 27° WNW 19:46:56 13° NNW visible
27 Jan 7.4 05:21:33 10° NNE 05:26:50 18° ENE 05:32:50 10° ESE visible
27 Jan 3.7 18:53:28 10° SSW 18:58:30 76° WNW 19:02:17 10° NNE visible
29 Jan 6.6 05:37:34 10° N 05:45:11 43° ENE 05:54:37 10° SE visible
29 Jan 6.0 19:13:41 10° WSW 19:16:38 17° WNW 19:19:12 10° NNW visible
30 Jan 7.2 04:53:01 10° NNE 04:59:23 25° ENE 05:06:53 10° ESE visible
